RH
34 33 31 30 30 30 30 30 29 30 31 31 31 31 31 32 33 36 39 41 41 41 42 44 45 45 45 46 47 47 48 48 48 48 48 48 48 46 45 44 42 41
32 32 31 30 29 29 29 29 30 31 32 31 32 32 33 35 36 39 41 41 41 42 43 44 45 46 46 47 47 47 48 48 49 50 50 50 49 49 48 48 47 46
32 32 31 30 29 28 28 29 31 32 32 32 32 34 35 38 40 42 43 43 43 43 43 44 45 46 47 47 47 48 48 48 48 48 48 49 49 50 49 50 50 50
32 32 32 31 30 30 29 30 32 33 33 34 35 37 38 41 43 44 44 43 43 43 43 44 44 45 47 47 48 49 48 48 47 46 45 45 46 48 49 49 50 51
32 33 33 32 31 31 31 32 33 34 36 37 38 40 41 43 45 45 46 45 45 45 44 44 44 45 46 46 47 48 47 47 47 48 47 46 46 47 48 48 49 51
34 34 33 33 32 32 33 34 35 36 37 39 40 42 44 45 46 45 46 47 48 48 46 45 46 45 45 46 47 49 49 49 50 51 53 53 52 51 51 51 51 52
34 34 34 35 34 34 35 36 37 37 38 39 41 43 44 45 45 46 47 49 50 50 49 48 48 48 48 48 50 53 54 54 55 55 56 58 58 58 57 56 56 56
33 34 35 35 35 36 37 37 37 38 39 41 43 44 45 45 46 47 48 49 50 50 50 51 53 53 53 53 54 57 60 61 61 60 60 60 61 61 61 62 62 62
33 34 35 36 37 37 37 37 37 38 40 43 45 46 46 47 48 50 51 51 52 53 53 55 57 59 59 58 59 60 63 66 67 66 66 66 65 66 66 67 68 69
34 35 36 37 37 37 37 38 39 40 43 44 45 47 47 48 49 51 53 55 57 58 59 60 60 61 61 61 61 62 64 67 69 70 70 71 71 72 72 73 75 76
37 37 37 37 37 37 38 39 41 44 46 46 47 48 48 47 47 50 55 59 62 64 65 65 65 64 65 66 66 67 68 68 69 70 71 74 75 76 77 78 81 82
38 38 37 37 37 38 40 41 45 47 48 49 49 49 49 48 50 54 59 63 67 70 71 71 71 71 71 71 70 70 71 71 72 74 77 79 80 81 82 84 85 87
38 38 38 38 38 40 43 46 48 49 49 50 51 51 51 52 57 62 64 67 70 72 74 75 75 74 74 74 74 74 74 75 76 78 81 83 84 86 88 90 90 91
37 38 39 39 41 43 47 49 50 49 49 49 52 54 56 60 65 68 70 72 74 77 79 78 78 80 79 78 77 74 72 74 78 83 86 88 90 91 92 93 93 94
38 40 41 42 44 46 49 51 50 49 49 52 57 60 62 67 71 74 78 80 82 85 85 84 86 86 82 82 83 80 81 86 89 93 97 97 98 97 96 97 97 97
40 41 42 44 47 49 52 53 52 51 53 57 62 66 70 75 79 82 85 86 88 89 89 90 91 85 83 91 91 85 89 98 100 101 102 101 100 101 100 100 100 99
43 44 45 47 50 52 55 55 55 56 58 62 70 76 80 83 85 88 88 88 91 91 91 93 89 86 90 92 82 71 73 85 95 102 105 102 100 101 101 100 100 98
46 47 48 51 54 56 57 58 59 62 67 72 79 83 85 86 88 90 89 90 92 92 93 91 85 90 93 81 68 62 61 68 82 93 103 104 101 101 101 100 100 99
47 49 52 55 57 59 60 61 65 70 75 81 85 86 88 90 91 91 90 91 92 90 91 89 83 89 91 76 67 66 61 60 69 81 97 104 100 101 102 100 100 100
51 53 55 58 59 61 63 66 71 77 82 86 88 89 92 92 92 93 91 91 92 89 91 90 82 85 89 77 66 64 59 58 67 84 101 104 101 102 102 101 101 100
55 57 58 59 59 62 66 71 77 83 87 89 90 91 94 93 94 95 93 92 93 90 91 91 82 83 89 78 64 59 57 59 77 98 105 100 100 102 100 99 100 99
59 60 60 61 62 67 72 77 83 88 90 92 93 94 95 95 95 96 94 94 93 91 93 91 83 86 93 82 66 58 53 62 86 103 103 101 102 99 95 96 97 97
61 61 62 64 68 73 79 84 89 93 94 95 96 97 97 97 97 97 96 96 95 94 95 93 87 91 94 81 65 55 55 74 97 103 102 104 102 97 96 96 95 96
63 63 65 68 73 79 85 90 93 95 96 97 98 99 99 99 99 99 98 98 98 96 96 96 93 95 95 80 59 49 59 84 104 104 101 103 101 99 99 96 93 93
66 68 70 74 79 85 90 94 96 98 99 100 100 100 101 100 101 102 101 99 98 96 96 98 95 92 92 81 62 54 65 83 99 104 103 103 102 100 98 95 95 94
72 75 78 83 87 91 94 96 97 100 101 101 101 101 101 101 101 102 101 99 99 97 95 96 94 90 91 88 78 75 78 83 95 105 104 101 101 100 99 100 97 92
Wind_Speed
13 13 13 14 15 15 16 16 17 18 18 18 18 18 18 18 18 18 18 19 20 21 21 20 19 19 20 20 20 20 21 21 21 21 21 22 22 22 23 24 24 25
13 13 13 15 15 15 16 17 18 18 18 18 18 18 19 18 18 18 19 20 21 21 20 20 20 20 21 21 21 21 22 22 23 22 22 22 22 23 24 24 24 24
13 13 14 15 16 16 17 17 17 17 18 18 18 19 19 19 19 19 19 20 21 20 20 20 20 20 21 21 22 23 23 23 24 23 23 24 23 24 24 24 24 24
13 13 15 15 16 17 17 17 17 18 19 19 19 19 19 19 19 19 20 20 20 21 21 20 20 21 22 22 22 23 23 23 24 24 24 25 23 23 24 24 25 25
14 15 15 16 16 17 17 17 18 19 19 19 19 19 19 19 20 20 20 20 21 22 21 21 22 22 23 23 23 23 24 24 23 23 25 26 25 25 25 26 26 27
16 16 16 17 17 17 17 18 19 19 19 19 19 19 19 19 20 20 20 21 21 22 22 22 23 23 23 23 24 24 24 25 25 24 25 27 27 27 27 27 28 28
16 17 17 17 17 17 18 19 19 18 19 19 19 19 19 19 20 20 20 21 22 22 22 23 23 23 23 24 24 25 25 26 26 26 26 27 28 28 29 29 29 30
17 18 18 18 18 18 19 19 18 18 19 19 19 19 19 19 20 21 21 22 22 22 22 23 24 24 24 24 25 26 26 26 26 26 28 29 29 29 30 29 29 31
18 19 19 19 19 19 19 18 19 19 19 19 19 19 19 19 21 21 22 22 23 23 23 24 24 24 24 25 25 26 27 27 27 27 28 29 30 30 31 30 30 31
20 20 20 20 19 19 19 19 20 20 19 19 19 19 20 21 21 22 22 23 24 24 24 24 25 25 26 26 27 27 28 28 28 29 30 30 31 31 32 31 31 31
20 20 20 20 19 19 19 19 20 20 19 19 19 20 22 22 22 23 23 24 24 25 26 26 26 27 27 28 28 28 29 30 30 31 32 32 32 32 32 32 31 31
21 20 20 20 20 19 19 20 21 20 19 19 20 21 22 23 24 24 24 25 26 26 26 27 27 27 27 29 30 30 30 31 32 33 33 33 33 32 32 32 31 31
21 21 20 20 20 20 20 21 21 20 20 20 21 22 23 25 25 25 25 26 27 27 27 27 28 28 29 30 31 32 32 33 34 34 33 33 33 33 32 32 32 32
21 21 20 20 20 20 21 21 21 21 20 20 21 22 25 26 26 27 27 27 27 28 27 27 28 30 31 31 32 34 35 35 35 34 34 34 34 35 34 34 34 34
22 21 21 21 21 21 21 21 21 21 20 21 23 24 26 27 27 27 28 28 29 28 28 29 29 31 32 32 34 36 36 35 35 34 34 35 35 36 36 35 35 36
22 22 22 21 21 22 22 21 21 21 22 24 26 27 27 27 27 27 28 29 30 30 30 30 31 33 34 34 34 36 36 36 36 35 34 35 34 34 35 35 35 35
23 23 22 22 22 22 22 22 22 23 26 27 27 27 27 27 28 29 29 30 30 31 31 31 33 34 34 35 36 37 37 38 39 38 34 33 34 33 34 34 34 34
23 23 23 22 22 22 22 23 24 26 27 28 27 28 28 28 29 29 30 30 30 31 31 32 35 35 34 36 38 38 37 37 39 39 35 32 32 33 33 33 33 34
23 23 23 23 22 23 23 24 26 27 27 27 28 28 29 30 30 30 30 31 30 32 32 33 35 36 35 37 38 38 37 36 38 40 36 32 31 31 32 32 33 34
23 23 23 24 24 24 25 26 26 27 28 28 28 29 29 30 30 30 31 31 31 32 33 34 36 37 36 37 38 38 37 36 37 37 32 30 30 30 30 32 33 34
23 24 24 24 24 25 26 27 28 28 28 28 28 29 30 30 31 31 31 31 31 31 33 35 37 37 36 37 39 37 35 36 37 34 31 30 30 29 30 31 32 33
24 24 24 24 25 26 27 28 28 28 28 28 29 29 30 30 30 30 31 31 31 31 33 36 38 37 36 37 39 37 36 36 36 34 31 29 29 30 30 31 31 32
24 24 25 26 27 27 28 29 28 28 28 28 29 30 30 30 31 31 31 31 32 32 32 35 38 37 36 38 39 37 36 36 34 31 29 28 30 31 30 30 30 29
25 25 27 28 28 28 29 29 28 28 29 29 29 30 31 31 31 32 32 31 31 31 31 33 37 38 37 38 38 35 35 35 33 30 29 29 29 28 28 28 29 29
26 27 28 28 29 29 29 29 30 30 30 30 29 30 31 31 31 31 32 31 31 31 32 32 36 39 39 37 36 35 34 35 34 30 28 26 26 27 28 28 27 28
27 28 28 28 29 29 30 31 32 31 31 30 30 30 31 31 31 31 32 33 32 32 33 34 36 38 37 35 35 35 35 35 33 29 25 26 27 27 27 26 26 28
Wind_Direction
301 304 308 308 307 306 306 307 308 308 308 308 308 308 308 308 308 309 309 310 311 311 311 310 309 309 309 308 307 305 304 303 301 301 299 296 295 294 292 291 290 289
298 300 305 306 305 304 304 304 304 304 305 305 305 305 305 306 305 306 306 308 309 309 308 308 307 307 307 306 306 304 302 301 298 298 297 294 294 293 291 290 289 288
295 298 303 305 304 304 304 303 302 302 303 303 304 304 304 304 304 304 305 306 307 306 306 306 305 306 306 305 305 303 301 300 298 297 294 291 291 291 290 289 288 287
294 297 301 302 302 303 302 302 301 301 302 302 301 302 302 302 302 302 304 305 305 304 304 304 303 304 304 303 303 301 299 298 297 297 296 292 291 289 289 288 287 286
294 297 299 300 301 301 300 299 299 300 301 300 300 300 300 300 300 301 302 302 303 304 304 303 303 304 304 303 302 300 299 298 297 297 296 295 294 292 290 289 287 285
295 296 298 299 300 299 298 298 298 299 298 298 299 299 298 299 299 300 300 301 301 302 302 302 303 303 303 303 302 300 299 298 298 296 293 292 292 290 289 288 287 286
296 298 299 299 298 297 297 297 297 297 297 297 298 298 298 299 299 299 300 300 300 300 300 302 302 302 303 303 302 299 297 296 295 294 292 290 289 287 286 285 285 284
298 299 299 298 297 297 296 296 296 297 297 297 297 298 299 299 299 301 301 300 300 300 300 301 301 301 302 301 300 297 295 294 292 290 289 288 287 286 285 285 284 283
298 299 298 297 297 296 295 295 296 298 297 296 296 297 299 299 300 301 301 301 301 300 301 301 301 301 300 300 298 295 293 291 289 287 287 286 285 284 284 284 283 282
298 298 298 297 296 295 295 295 296 298 297 295 296 297 299 299 300 301 301 300 300 300 301 301 301 300 299 298 295 293 291 289 288 286 285 284 282 282 283 283 282 280
296 297 296 296 295 295 295 296 297 296 295 294 296 299 300 301 302 302 301 299 299 299 299 298 299 298 297 295 293 291 289 288 287 286 284 283 282 281 281 280 278 277
294 295 295 295 295 295 295 296 296 294 293 294 296 298 300 302 302 301 299 298 297 296 296 296 296 296 294 292 291 290 289 287 286 284 283 283 282 281 280 278 276 275
294 294 294 294 294 294 294 295 295 292 292 294 296 298 300 301 300 298 296 296 295 294 295 294 294 293 292 290 289 288 288 286 284 284 283 282 282 281 279 278 276 274
294 294 293 293 293 293 294 294 292 291 292 294 296 297 298 298 297 296 295 294 293 293 293 293 292 291 290 289 289 288 287 285 283 283 283 283 282 281 279 278 277 274
294 293 292 293 293 293 293 293 292 292 294 296 296 295 295 295 295 294 294 293 293 292 292 292 290 289 290 289 287 287 285 284 283 283 283 283 282 282 281 279 278 275
292 292 292 292 292 292 292 292 291 292 296 297 295 293 293 294 294 293 292 291 292 292 293 291 289 289 290 288 285 285 284 282 282 282 281 280 279 280 281 280 279 276
291 291 292 292 292 292 292 291 291 293 295 295 294 292 292 293 294 292 291 291 291 292 292 291 290 291 290 289 289 290 290 287 285 283 280 278 278 280 281 282 281 278
290 291 292 292 291 292 292 292 293 294 295 294 292 291 292 293 293 292 291 291 291 291 291 291 291 291 291 293 295 296 297 296 293 290 285 282 283 283 282 283 282 280
291 291 292 291 291 292 292 293 294 294 294 292 291 292 292 293 293 292 291 291 291 291 291 291 292 293 293 296 298 298 301 302 299 296 293 290 290 287 285 284 282 281
292 291 290 290 291 291 292 293 294 293 293 292 291 292 292 291 292 292 291 291 291 291 291 291 293 294 294 297 300 301 304 304 302 301 299 296 294 291 288 285 283 282
292 291 290 291 292 293 293 293 293 292 292 292 291 291 290 290 291 290 290 291 291 291 291 291 293 295 296 298 301 304 306 306 304 303 302 299 297 295 291 287 284 283
293 292 291 293 294 294 293 292 292 291 291 292 292 290 289 289 289 289 290 290 291 292 291 291 294 297 297 298 302 304 306 306 304 303 302 300 297 295 293 289 286 285
293 293 293 294 294 293 292 292 291 290 291 292 292 291 289 289 288 289 290 291 291 291 290 291 294 297 296 299 303 304 305 305 303 301 300 297 295 294 293 290 287 286
293 293 294 293 293 291 291 290 290 290 293 293 291 290 289 289 290 290 291 291 290 290 291 291 293 295 297 300 304 305 306 305 303 300 298 296 295 294 292 290 289 288
293 292 292 292 291 290 289 289 290 291 293 292 290 288 288 289 290 290 290 290 290 290 291 291 292 295 299 303 305 308 309 306 303 300 298 295 295 295 293 292 291 292
293 292 291 290 289 289 289 289 290 291 292 291 289 287 287 288 289 289 289 290 291 291 292 293 293 296 300 302 304 306 308 307 305 302 298 299 299 298 296 296 297 296